{"data":{"norad_id":49495,"epoch":"2026-05-25T03:42:00.345024Z","epoch_age_seconds":61161,"freshness":"FRESH","line1":"1 49495U 21109A   26145.15417066  .00000057  00000+0  30530-4 0  9998","line2":"2 49495  98.4098 153.5787 0003913  67.8473 292.3131 14.42213501236991","mean_motion":14.42213501,"eccentricity":0.0003913,"inclination_deg":98.4098,"raan_deg":153.5787,"arg_perigee_deg":67.8473,"mean_anomaly_deg":292.3131,"bstar":3.053e-5,"rev_number":23699,"period_min":99.84652057421,"perigee_km":748.40470107499,"apogee_km":753.98411583525,"semimajor_km":7129.3314084551,"source":"CELESTRAK","updated_at":"2026-05-25T13:37:57.236985Z"}}